GW6316 Weather Reports


time (UTC)temp
C
wind
direction
speed
KPH
gust
KPH
rain 1hr
cm
rain 24hr
cm
rain mn
cm
humidity
%
barometer
mb
20260504000044 16 306 1.6 3.2 0.00 0.00 0.00 37 1014.7
20260503235527 17 328 0.0 4.8 0.00 0.00 0.00 35 1014.8
20260503235032 17 283 0.0 4.8 0.00 0.00 0.00 35 1014.7
20260503234543 16 360 1.6 4.8 0.00 0.00 0.00 36 1014.7
20260503234032 16 280 0.0 4.8 0.00 0.00 0.00 36 1014.7
20260503233534 16 280 1.6 4.8 0.00 0.00 0.00 34 1014.6
20260503233040 17 336 0.0 4.8 0.00 0.00 0.00 34 1014.6
20260503232531 16 322 3.2 4.8 0.00 0.00 0.00 34 1014.6
20260503232031 16 321 0.0 8.0 0.00 0.00 0.00 34 1014.5
20260503231552 16 344 3.2 8.0 0.00 0.00 0.00 33 1014.5
20260503231031 17 294 3.2 8.0 0.00 0.00 0.00 32 1014.5
20260503230541 17 281 1.6 12.9 0.00 0.00 0.00 32 1014.5
20260503230052 17 294 3.2 12.9 0.00 0.00 0.00 32 1014.6
20260503225531 17 334 3.2 12.9 0.00 0.00 0.00 31 1014.6
20260503225032 17 321 1.6 6.4 0.00 0.00 0.00 30 1014.6
20260503224541 16 290 3.2 8.0 0.00 0.00 0.00 31 1014.6
20260503224034 16 243 3.2 8.0 0.00 0.00 0.00 32 1014.6
20260503223532 17 277 1.6 6.4 0.00 0.00 0.00 31 1014.6
20260503223051 16 62 1.6 12.9 0.00 0.00 0.00 31 1014.6
20260503222531 16 333 1.6 12.9 0.00 0.00 0.00 30 1014.6
20260503222034 16 327 4.8 12.9 0.00 0.00 0.00 30 1014.7
20260503221552 17 301 3.2 12.9 0.00 0.00 0.00 30 1014.7
20260503221034 16 65 1.6 9.7 0.00 0.00 0.00 30 1014.6
20260503220534 16 227 3.2 9.7 0.00 0.00 0.00 30 1014.6
20260503220049 17 257 3.2 14.5 0.00 0.00 0.00 30 1014.6
20260503215534 17 255 4.8 14.5 0.00 0.00 0.00 30 1014.6
20260503215033 17 34 4.8 14.5 0.00 0.00 0.00 30 1014.5
20260503214539 17 286 3.2 14.5 0.00 0.00 0.00 30 1014.6
20260503214032 17 121 4.8 14.5 0.00 0.00 0.00 30 1014.5
20260503213532 17 186 3.2 14.5 0.00 0.00 0.00 30 1014.6
20260503213045 17 277 3.2 12.9 0.00 0.00 0.00 31 1014.6
20260503212533 17 273 3.2 14.5 0.00 0.00 0.00 29 1014.5
20260503212030 17 149 4.8 14.5 0.00 0.00 0.00 30 1014.6
20260503211544 16 292 3.2 17.7 0.00 0.00 0.00 30 1014.5
20260503211033 16 234 8.0 17.7 0.00 0.00 0.00 30 1014.5
20260503210531 16 351 8.0 17.7 0.00 0.00 0.00 30 1014.5
20260503210044 17 246 8.0 17.7 0.00 0.00 0.00 30 1014.5
20260503205533 17 277 3.2 17.7 0.00 0.00 0.00 30 1014.5
20260503205034 16 321 4.8 17.7 0.00 0.00 0.00 30 1014.5
20260503204547 17 317 4.8 14.5 0.00 0.00 0.00 29 1014.5
20260503204032 17 200 3.2 16.1 0.00 0.00 0.00 28 1014.3
20260503203536 17 331 4.8 17.7 0.00 0.00 0.00 29 1014.5
20260503203047 17 341 9.7 22.5 0.00 0.00 0.00 29 1014.5
20260503202534 17 346 4.8 22.5 0.00 0.00 0.00 29 1014.5
20260503202037 17 323 8.0 22.5 0.00 0.00 0.00 29 1014.5
20260503201541 17 132 6.4 17.7 0.00 0.00 0.00 28 1014.6
20260503201033 17 49 6.4 19.3 0.00 0.00 0.00 29 1014.6
20260503200533 17 53 8.0 19.3 0.00 0.00 0.00 29 1014.6
20260503200047 17 300 4.8 19.3 0.00 0.00 0.00 29 1014.8
20260503195533 17 319 4.8 19.3 0.00 0.00 0.00 28 1014.9
20260503195031 17 221 9.7 19.3 0.00 0.00 0.00 29 1014.9
20260503194544 17 314 9.7 19.3 0.00 0.00 0.00 29 1015.0
20260503194033 17 306 4.8 19.3 0.00 0.00 0.00 29 1015.1
20260503193531 17 327 9.7 19.3 0.00 0.00 0.00 29 1015.0
20260503193049 17 312 4.8 22.5 0.00 0.00 0.00 29 1015.0
20260503192532 17 213 9.7 22.5 0.00 0.00 0.00 30 1015.2
20260503192029 17 300 8.0 22.5 0.00 0.00 0.00 31 1015.2
20260503191541 16 170 6.4 19.3 0.00 0.00 0.00 31 1015.3
20260503191033 16 275 9.7 17.7 0.00 0.00 0.00 29 1015.3
20260503190531 17 229 6.4 17.7 0.00 0.00 0.00 29 1015.5
20260503190043 17 317 4.8 22.5 0.00 0.00 0.00 30 1015.4
20260503185531 16 286 9.7 22.5 0.00 0.00 0.00 30 1015.5
20260503185031 17 319 8.0 24.1 0.00 0.00 0.00 29 1015.5
20260503184555 17 305 8.0 24.1 0.00 0.00 0.00 30 1015.6
20260503184030 16 288 8.0 22.5 0.00 0.00 0.00 31 1015.6
20260503183532 16 333 4.8 20.9 0.00 0.00 0.00 31 1015.5
20260503183041 16 248 4.8 20.9 0.00 0.00 0.00 31 1015.6
20260503182541 16 325 8.0 20.9 0.00 0.00 0.00 32 1015.6
20260503182035 16 235 6.4 20.9 0.00 0.00 0.00 32 1015.6
20260503181543 16 341 8.0 20.9 0.00 0.00 0.00 32 1015.7
20260503181031 16 332 6.4 20.9 0.00 0.00 0.00 34 1015.6
20260503180530 16 329 6.4 19.3 0.00 0.00 0.00 32 1015.7
20260503180043 16 313 6.4 19.3 0.00 0.00 0.00 33 1015.7
20260503175530 16 85 4.8 19.3 0.00 0.00 0.00 32 1015.7
20260503175030 16 309 6.4 20.9 0.00 0.00 0.00 33 1015.7
20260503174600 16 307 8.0 22.5 0.00 0.00 0.00 33 1015.8
20260503174031 15 314 9.7 22.5 0.00 0.00 0.00 34 1015.9
20260503173533 16 352 6.4 20.9 0.00 0.00 0.00 34 1016.0
20260503173049 15 335 9.7 25.7 0.00 0.00 0.00 34 1015.8
20260503172533 15 101 12.9 25.7 0.00 0.00 0.00 35 1016.0
20260503172032 15 292 12.9 25.7 0.00 0.00 0.00 35 1015.9
20260503171545 15 138 4.8 22.5 0.00 0.00 0.00 34 1016.0
20260503171029 15 217 12.9 25.7 0.00 0.00 0.00 34 1016.0
20260503170534 15 326 11.3 25.7 0.00 0.00 0.00 34 1016.1
20260503150532 13 281 4.8 19.3 0.00 0.00 0.00 38 1016.5
20260503131034 12 318 12.9 29.0 0.00 0.00 0.00 43 1016.1
20260503130532 12 271 9.7 19.3 0.00 0.00 0.00 44 1016.1
20260503110535 11 296 9.7 25.7 0.00 0.00 0.00 46 1014.8
20260503081550 12 60 3.2 17.7 0.00 0.00 0.00 58 1012.2
20260503081031 12 303 8.0 17.7 0.00 0.00 0.00 58 1012.1
20260503080531 12 248 6.4 22.5 0.00 0.00 0.00 57 1012.0
20260503072533 13 225 6.4 19.3 0.00 0.00 0.00 55 1011.7
20260503072035 12 331 8.0 19.3 0.00 0.00 0.00 56 1011.6
20260503071547 12 332 8.0 19.3 0.00 0.00 0.00 56 1011.5
20260503071034 13 220 6.4 19.3 0.00 0.00 0.00 55 1011.4
20260503070533 13 28 4.8 17.7 0.00 0.00 0.00 54 1011.5
20260503055033 12 323 4.8 12.9 0.00 0.00 0.00 58 1010.9
20260503054546 12 348 1.6 12.9 0.00 0.00 0.00 57 1011.0
20260503054034 12 348 4.8 9.7 0.00 0.00 0.00 57 1011.0
20260503053533 12 344 3.2 9.7 0.00 0.00 0.00 56 1011.1
20260503053044 12 325 1.6 8.0 0.00 0.00 0.00 56 1011.1
20260503052533 12 333 1.6 9.7 0.00 0.00 0.00 56 1011.1
20260503052033 12 324 3.2 9.7 0.00 0.00 0.00 55 1011.1
20260503051543 12 84 3.2 12.9 0.00 0.00 0.00 55 1011.2
20260503051033 12 299 3.2 12.9 0.00 0.00 0.00 55 1011.1
20260503050531 12 9 3.2 12.9 0.00 0.00 0.00 55 1011.0
20260503050044 12 352 1.6 12.9 0.00 0.00 0.00 55 1011.1
20260503045533 12 340 3.2 12.9 0.00 0.00 0.00 54 1011.1
20260503045034 13 310 3.2 8.0 0.00 0.00 0.00 54 1011.2
20260503044547 13 269 1.6 9.7 0.00 0.00 0.00 54 1011.1
20260503044030 13 295 3.2 9.7 0.00 0.00 0.00 55 1011.2
20260503043533 13 344 3.2 9.7 0.00 0.00 0.00 55 1011.2
20260503043046 13 304 1.6 8.0 0.00 0.00 0.00 53 1011.3
20260503042531 14 313 1.6 9.7 0.00 0.00 0.00 52 1011.2
20260503042031 13 290 3.2 19.3 0.00 0.00 0.00 53 1011.2
20260503041540 13 310 3.2 19.3 0.00 0.00 0.00 53 1011.3
20260503041029 13 269 4.8 19.3 0.00 0.00 0.00 52 1011.3
20260503040531 13 295 4.8 12.9 0.00 0.00 0.00 50 1011.2
20260503040047 13 285 3.2 12.9 0.00 0.00 0.00 51 1011.1
20260503035531 13 352 4.8 12.9 0.00 0.00 0.00 52 1011.2
20260503035031 13 324 4.8 16.1 0.00 0.00 0.00 52 1011.2
20260503034558 13 289 6.4 16.1 0.00 0.00 0.00 52 1011.3
20260503034032 14 331 4.8 12.9 0.00 0.00 0.00 51 1011.3
20260503033533 14 352 3.2 12.9 0.00 0.00 0.00 52 1011.3
20260503033051 13 251 4.8 12.9 0.00 0.00 0.00 53 1011.2
20260503032531 13 277 1.6 9.7 0.00 0.00 0.00 53 1011.0
20260503032033 14 344 3.2 11.3 0.00 0.00 0.00 53 1011.0
20260503031538 13 28 3.2 11.3 0.00 0.00 0.00 55 1010.9
20260503031032 13 298 3.2 11.3 0.00 0.00 0.00 55 1010.9
20260503030530 13 0 1.6 8.0 0.00 0.00 0.00 55 1011.0
20260503030047 13 153 3.2 8.0 0.00 0.00 0.00 56 1010.9
20260503025531 13 240 3.2 11.3 0.00 0.00 0.00 56 1011.1
20260503025031 13 291 3.2 12.9 0.00 0.00 0.00 55 1011.1
20260503024550 13 101 4.8 12.9 0.00 0.00 0.00 55 1011.2
20260503024030 13 308 3.2 8.0 0.00 0.00 0.00 55 1011.3
20260503023530 13 242 1.6 9.7 0.00 0.00 0.00 55 1011.3
20260503023044 13 298 3.2 12.9 0.00 0.00 0.00 55 1011.4
20260503022534 13 295 3.2 12.9 0.00 0.00 0.00 54 1011.3
20260503022031 13 345 1.6 12.9 0.00 0.00 0.00 55 1011.2
20260503021543 13 261 4.8 9.7 0.00 0.00 0.00 54 1011.2
20260503021031 13 296 3.2 6.4 0.00 0.00 0.00 54 1011.1
20260503020531 13 9 1.6 9.7 0.00 0.00 0.00 53 1011.2
20260503020042 13 248 3.2 9.7 0.00 0.00 0.00 53 1011.2
20260503015533 13 33 4.8 9.7 0.00 0.00 0.00 53 1011.2
20260503015031 13 352 1.6 9.7 0.00 0.00 0.00 52 1011.2
20260503014546 13 290 1.6 14.5 0.00 0.00 0.00 52 1011.1
20260503014030 13 286 1.6 14.5 0.00 0.00 0.00 52 1011.1
20260503013532 13 336 4.8 9.7 0.00 0.00 0.00 52 1011.1
20260503013040 13 348 1.6 12.9 0.00 0.00 0.00 52 1011.0
20260503012533 13 323 3.2 12.9 0.00 0.00 0.00 51 1011.0
20260503012033 13 360 4.8 9.7 0.00 0.00 0.00 50 1010.9
20260503011540 13 308 1.6 8.0 0.00 0.00 0.00 50 1010.8
20260503011033 14 23 3.2 14.5 0.00 0.00 0.00 48 1010.6
20260503010531 14 9 1.6 14.5 0.00 0.00 0.00 49 1010.6
20260503010043 13 5 3.2 14.5 0.00 0.00 0.00 49 1010.8
20260503005533 13 22 3.2 9.7 0.00 0.00 0.00 50 1010.9
20260503005031 13 320 1.6 8.0 0.00 0.00 0.00 49 1010.7
20260503004607 14 24 4.8 9.7 0.00 0.00 0.00 48 1010.7
20260503004036 14 41 1.6 12.9 0.00 0.00 0.00 47 1010.6
20260503003533 14 112 4.8 14.5 0.00 0.00 0.00 47 1010.4
20260503003052 13 260 4.8 14.5 0.00 0.00 0.00 47 1010.4
20260503002533 14 351 4.8 11.3 0.00 0.00 0.00 45 1010.4
20260503002034 13 325 3.2 16.1 0.00 0.00 0.00 46 1010.4
20260503001559 13 84 4.8 17.7 0.00 0.00 0.00 46 1010.3
20260503001034 13 195 4.8 17.7 0.00 0.00 0.00 46 1010.2
20260503000531 13 331 4.8 17.7 0.00 0.00 0.00 46 1010.2